| time (UTC) | temp F | wind direction | speed MPH | gust MPH | rain 1hr in | rain 24hr in | rain mn in | humidity % | barometer mb |
| 20260831193035 | 75 | 24 | 6.0 | 14.0 | 0.00 | 0.00 | 0.00 | 40 | 1015.0 |
| 20260831190107 | 73 | 19 | 6.0 | 13.0 | 0.00 | 0.00 | 0.00 | 44 | 1015.6 |
| 20260831184536 | 72 | 13 | 4.0 | 10.0 | 0.00 | 0.00 | 0.00 | 45 | 1016.0 |
| 20260831183031 | 71 | 15 | 3.0 | 10.0 | 0.00 | 0.00 | 0.00 | 46 | 1016.2 |
| 20260831174536 | 70 | 20 | 3.0 | 8.0 | 0.00 | 0.00 | 0.00 | 47 | 1016.7 |
| 20260831173109 | 70 | 45 | 4.0 | 10.0 | 0.00 | 0.00 | 0.00 | 48 | 1016.8 |
| 20260831171532 | 69 | 57 | 3.0 | 7.0 | 0.00 | 0.00 | 0.00 | 50 | 1016.8 |
| 20260831164535 | 71 | 345 | 2.0 | 6.0 | 0.00 | 0.00 | 0.00 | 50 | 1017.0 |
| 20260831163034 | 71 | 14 | 0.0 | 5.0 | 0.00 | 0.00 | 0.00 | 51 | 1017.1 |
| 20260831161535 | 69 | 18 | 0.0 | 3.0 | 0.00 | 0.00 | 0.00 | 54 | 1017.2 |
| 20260831160142 | 66 | 357 | 0.0 | 0.0 | 0.00 | 0.00 | 0.00 | 58 | 1017.3 |
| 20260831154532 | 63 | 325 | 0.0 | 0.0 | 0.00 | 0.00 | 0.00 | 64 | 1017.3 |
| 20260831153032 | 60 | 171 | 0.0 | 0.0 | 0.00 | 0.00 | 0.00 | 68 | 1017.4 |
| 20260831150030 | 55 | 180 | 0.0 | 0.0 | 0.00 | 0.00 | 0.00 | 75 | 1017.4 |
| 20260831144530 | 52 | 180 | 0.0 | 0.0 | 0.00 | 0.00 | 0.00 | 78 | 1017.2 |
| 20260831143106 | 50 | 240 | 0.0 | 0.0 | 0.00 | 0.00 | 0.00 | 78 | 1017.1 |
| 20260831141650 | 49 | 239 | 0.0 | 0.0 | 0.00 | 0.00 | 0.00 | 77 | 1017.1 |
| 20260831134532 | 48 | 202 | 0.0 | 0.0 | 0.00 | 0.00 | 0.00 | 78 | 1017.1 |
| 20260831133032 | 48 | 202 | 0.0 | 0.0 | 0.00 | 0.00 | 0.00 | 78 | 1017.1 |
| 20260831131531 | 48 | 202 | 0.0 | 0.0 | 0.00 | 0.00 | 0.00 | 77 | 1017.1 |
| 20260831130035 | 48 | 163 | 0.0 | 0.0 | 0.00 | 0.00 | 0.00 | 76 | 1017.1 |
| 20260831124530 | 49 | 157 | 0.0 | 0.0 | 0.00 | 0.00 | 0.00 | 74 | 1017.1 |
| 20260831123028 | 50 | 157 | 1.0 | 4.0 | 0.00 | 0.00 | 0.00 | 74 | 1017.1 |
| 20260831121535 | 50 | 239 | 0.0 | 4.0 | 0.00 | 0.00 | 0.00 | 75 | 1017.1 |
| 20260831120034 | 49 | 247 | 0.0 | 0.0 | 0.00 | 0.00 | 0.00 | 75 | 1017.1 |
| 20260831114535 | 49 | 247 | 0.0 | 0.0 | 0.00 | 0.00 | 0.00 | 75 | 1017.2 |
| 20260831113150 | 48 | 247 | 0.0 | 2.0 | 0.00 | 0.00 | 0.00 | 74 | 1017.2 |
| 20260831111535 | 49 | 247 | 0.0 | 2.0 | 0.00 | 0.00 | 0.00 | 74 | 1017.1 |
| 20260831110107 | 49 | 247 | 0.0 | 0.0 | 0.00 | 0.00 | 0.00 | 73 | 1017.1 |
| 20260831103140 | 50 | 247 | 0.0 | 3.0 | 0.00 | 0.00 | 0.00 | 71 | 1017.1 |
| 20260831100034 | 50 | 270 | 0.0 | 0.0 | 0.00 | 0.00 | 0.00 | 71 | 1017.4 |
| 20260831094533 | 50 | 255 | 0.0 | 2.0 | 0.00 | 0.00 | 0.00 | 70 | 1017.5 |
| 20260831091533 | 51 | 192 | 0.0 | 2.0 | 0.00 | 0.00 | 0.00 | 70 | 1017.7 |
| 20260831090035 | 51 | 247 | 0.0 | 0.0 | 0.00 | 0.00 | 0.00 | 70 | 1017.8 |
| 20260831084535 | 51 | 247 | 0.0 | 0.0 | 0.00 | 0.00 | 0.00 | 70 | 1017.9 |
| 20260831083044 | 51 | 247 | 0.0 | 0.0 | 0.00 | 0.00 | 0.00 | 69 | 1017.9 |
| 20260831081530 | 51 | 247 | 0.0 | 0.0 | 0.00 | 0.00 | 0.00 | 68 | 1018.0 |
| 20260831080031 | 51 | 247 | 0.0 | 3.0 | 0.00 | 0.00 | 0.00 | 69 | 1018.0 |
| 20260831074534 | 51 | 247 | 0.0 | 2.0 | 0.00 | 0.00 | 0.00 | 68 | 1018.1 |
| 20260831073035 | 51 | 247 | 0.0 | 3.0 | 0.00 | 0.00 | 0.00 | 68 | 1018.1 |
| 20260831071532 | 51 | 247 | 0.0 | 4.0 | 0.00 | 0.00 | 0.00 | 68 | 1018.2 |
| 20260831070143 | 52 | 247 | 0.0 | 3.0 | 0.00 | 0.00 | 0.00 | 66 | 1018.2 |
| 20260831063148 | 53 | 234 | 0.0 | 4.0 | 0.00 | 0.00 | 0.00 | 66 | 1018.4 |
| 20260831061532 | 54 | 225 | 0.0 | 2.0 | 0.00 | 0.00 | 0.00 | 64 | 1018.4 |
| 20260831060033 | 55 | 218 | 0.0 | 3.0 | 0.00 | 0.00 | 0.00 | 64 | 1018.4 |
| 20260831054530 | 55 | 247 | 0.0 | 1.0 | 0.00 | 0.00 | 0.00 | 62 | 1018.5 |
| 20260831053034 | 57 | 247 | 1.0 | 3.0 | 0.00 | 0.00 | 0.00 | 60 | 1018.5 |
| 20260831051529 | 58 | 219 | 0.0 | 3.0 | 0.00 | 0.00 | 0.00 | 59 | 1018.5 |
| 20260831050031 | 58 | 170 | 2.0 | 3.0 | 0.00 | 0.00 | 0.00 | 59 | 1018.6 |
| 20260831044529 | 58 | 157 | 3.0 | 5.0 | 0.00 | 0.00 | 0.00 | 58 | 1018.6 |
| 20260831041537 | 59 | 157 | 1.0 | 4.0 | 0.00 | 0.00 | 0.00 | 56 | 1018.5 |
| 20260831034529 | 62 | 196 | 0.0 | 0.0 | 0.00 | 0.00 | 0.00 | 54 | 1018.3 |
| 20260831031649 | 62 | 35 | 2.0 | 4.0 | 0.00 | 0.00 | 0.00 | 53 | 1018.1 |
| 20260831030030 | 62 | 10 | 3.0 | 6.0 | 0.00 | 0.00 | 0.00 | 52 | 1018.0 |
| 20260831024535 | 63 | 2 | 3.0 | 5.0 | 0.00 | 0.00 | 0.00 | 51 | 1017.9 |
| 20260831021530 | 67 | 12 | 4.0 | 8.0 | 0.00 | 0.00 | 0.00 | 45 | 1017.8 |
| 20260831020109 | 69 | 358 | 4.0 | 9.0 | 0.00 | 0.00 | 0.00 | 43 | 1017.8 |
| 20260831014535 | 70 | 347 | 6.0 | 11.0 | 0.00 | 0.00 | 0.00 | 41 | 1017.8 |
| 20260831013034 | 71 | 340 | 6.0 | 9.0 | 0.00 | 0.00 | 0.00 | 40 | 1017.9 |
| 20260831011535 | 73 | 350 | 6.0 | 9.0 | 0.00 | 0.00 | 0.00 | 39 | 1017.7 |
| 20260831010031 | 74 | 1 | 5.0 | 11.0 | 0.00 | 0.00 | 0.00 | 39 | 1017.9 |
| 20260831004531 | 74 | 5 | 4.0 | 9.0 | 0.00 | 0.00 | 0.00 | 40 | 1017.9 |
| 20260831000032 | 74 | 3 | 2.0 | 8.0 | 0.00 | 0.00 | 0.00 | 39 | 1018.1 |
| 20260830234532 | 75 | 18 | 3.0 | 9.0 | 0.00 | 0.00 | 0.00 | 39 | 1018.2 |
| 20260830233035 | 75 | 29 | 2.0 | 7.0 | 0.00 | 0.00 | 0.00 | 39 | 1018.4 |
| 20260830231534 | 75 | 9 | 4.0 | 9.0 | 0.00 | 0.00 | 0.00 | 40 | 1018.5 |
| 20260830230031 | 73 | 360 | 3.0 | 7.0 | 0.00 | 0.00 | 0.00 | 41 | 1018.7 |
| 20260830224536 | 73 | 337 | 4.0 | 10.0 | 0.00 | 0.00 | 0.00 | 42 | 1019.0 |
| 20260830223035 | 72 | 353 | 4.0 | 10.0 | 0.00 | 0.00 | 0.00 | 43 | 1019.1 |
| 20260830221552 | 72 | 25 | 7.0 | 15.0 | 0.00 | 0.00 | 0.00 | 43 | 1019.2 |
| 20260830220031 | 72 | 6 | 6.0 | 13.0 | 0.00 | 0.00 | 0.00 | 44 | 1019.4 |
| 20260830214534 | 72 | 5 | 6.0 | 12.0 | 0.00 | 0.00 | 0.00 | 44 | 1019.6 |
| 20260830213031 | 72 | 8 | 5.0 | 13.0 | 0.00 | 0.00 | 0.00 | 44 | 1019.7 |
| 20260830211530 | 72 | 9 | 5.0 | 12.0 | 0.00 | 0.00 | 0.00 | 44 | 1019.7 |
| 20260830210030 | 72 | 11 | 5.0 | 12.0 | 0.00 | 0.00 | 0.00 | 43 | 1019.8 |
| 20260830204533 | 73 | 340 | 5.0 | 8.0 | 0.00 | 0.00 | 0.00 | 42 | 1019.9 |
| 20260830203030 | 73 | 25 | 5.0 | 13.0 | 0.00 | 0.00 | 0.00 | 41 | 1020.1 |
| 20260830201531 | 73 | 5 | 5.0 | 11.0 | 0.00 | 0.00 | 0.00 | 40 | 1020.1 |
| 20260830200037 | 72 | 8 | 4.0 | 10.0 | 0.00 | 0.00 | 0.00 | 41 | 1020.2 |
| 20260830194530 | 72 | 359 | 1.0 | 9.0 | 0.00 | 0.00 | 0.00 | 40 | 1020.4 |